Regional Weather Roundup
Issued by NWS

Home | Current Version | Previous Version | Graphics & Text | Print | Product List | Glossary On
Versions: 1 2 3 4 5 6 7 8 9 10 11 12 13 14 15 16 17 18 19 20 21 22 23 24 25 26 27 28 29 30 31 32 33 34 35 36 37 38 39 40 41 42 43 44 45 46 47 48 49 50
000
ASUS45 KTFX 261410
RWRMT
MONTANA REGIONAL WEATHER ROUNDUP
NATIONAL WEATHER SERVICE GREAT FALLS MT
800 AM MDT FRI AUG 26 2016

NOTE: "FAIR" INDICATES FEW OR NO CLOUDS BELOW 12000 FEET WITH NO
SIGNIFICANT WEATHER AND/OR OBSTRUCTIONS TO VISIBILITY.

MTZ001>007-043-261500-
WEST OF THE DIVIDE

CITY           SKY/WX    TMP DP  RH WIND       PRES   REMARKS
KALISPELL      SUNNY     55  45  68 N14       30.11R
MISSOULA       SUNNY     45  34  65 CALM      30.13S
BUTTE          SUNNY     38  29  70 CALM      30.18S
MULLAN PASS    SUNNY     49  32  52 SE6       30.16S
DEER LODGE       N/A     43  36  75 CALM      30.19S
EUREKA           N/A     45  43  93 CALM      30.14S
HAMILTON         N/A     46  34  61 S3        30.13R
LIBBY            N/A     48  39  71 CALM      30.12S
PLAINS           N/A     43  37  79 CALM      30.11R
RONAN            N/A     45  40  82 MISG      30.14S
THOMPSON FALLS   N/A     42  35  76 CALM      30.14
$$

MTZ008-052>055-261500-
SOUTHWEST MONTANA

CITY           SKY/WX    TMP DP  RH WIND       PRES   REMARKS
BOZEMAN        SUNNY     43  36  76 CALM      30.17R
DILLON         CLOUDY    46  31  55 CALM      30.15R
W YELLOWSTONE  CLOUDY    43  30  61 NW3       30.21R HAZE
ENNIS          MOSUNNY   46  32  57 CALM      30.21S
THREE FORKS      N/A     40  40 100 CALM      30.13S
TWIN BRIDGES     N/A     52  32  46 N9        30.11S
$$

MTZ009-010-012-014-046-048-049-054-261500-
EAST SLOPES AND CENTRAL MONTANA

CITY           SKY/WX    TMP DP  RH WIND       PRES   REMARKS
CUT BANK       MOSUNNY   46  42  86 W8        30.15S
GREAT FALLS    CLOUDY    51  44  77 SW6       30.16S
MALMSTROM AFB  PTSUNNY   52  46  79 W6        30.16S
HELENA         MOSUNNY   54  42  64 W6        30.15F
CHOTEAU          N/A     52  45  76 CALM      30.17F
CONRAD           N/A     53  48  83 W3        30.16S
$$

MTZ011-013-016-021-045-047-050-051-261500-
NORTH CENTRAL MONTANA

CITY           SKY/WX    TMP DP  RH WIND       PRES   REMARKS
HAVRE          CLOUDY    51  48  89 SW10      30.12R
LEWISTOWN      CLOUDY    51  45  79 SW6       30.17R
N BAR RANCH      N/A     50  43  76 W6        30.17R
CHINOOK          N/A     54  52  94 W8        30.10S
$$

MTZ017>020-022>027-061-062-261500-
NORTHEAST MONTANA

CITY           SKY/WX    TMP DP  RH WIND       PRES   REMARKS
GLASGOW        LGT RAIN  54  49  83 NW6       30.05S
JORDAN           N/A     51  40  65 W5        30.08R
SIDNEY         CLOUDY    52  45  77 S6        30.06S
WOLF POINT     LGT RAIN  56  46  69 SW7       30.06R
POPLAR           N/A     55  43  62 CALM      30.05S
SCOBEY           N/A     53  47  80 CALM      30.03F
$$

MTZ028>42-056>058-261500-
SOUTHCENTRAL AND SOUTHEAST MONTANA

CITY           SKY/WX    TMP DP  RH WIND       PRES   REMARKS
BAKER          SUNNY     53  41  63 E5        30.10S
BILLINGS       PTSUNNY   52  41  66 SW9       30.11S
LIVINGSTON     SUNNY     45  38  76 CALM      30.16S
MILES CITY     CLOUDY    58  39  49 SE6       30.07S
EKALAKA          N/A     54  47  77 E2        30.07F
FORSYTH          N/A     52  45  76 W3        30.08R
LAUREL           N/A     50  41  71 CALM      30.10R
ROUNDUP          N/A     54  38  54 W6        30.02S
$$

REGIONAL REPORTS...DAKOTAS

CITY           SKY/WX    TMP DP  RH WIND       PRES   REMARKS
WILLISTON      CLOUDY    54  42  64 S5        30.06S
MINOT          MOSUNNY   61  46  57 SW10      30.04R
DICKINSON      PTSUNNY   54  44  69 SW6       30.09S
CROSBY           N/A     55  48  76 SW7       30.05S
WATFORD CITY     N/A     54  41  62 CALM      30.08S
BISMARCK       CLOUDY    53  49  86 CALM      30.12S
GRAND FORKS    MOSUNNY   57  50  77 S3        30.07S
FARGO          SUNNY     60  50  69 S10       30.12R
BUFFALO SD       N/A     56  47  71 S6        30.05F
RAPID CITY     CLOUDY    54  51  90 SE8       30.17R
$$

REGIONAL REPORTS...WYOMING/IDAHO/WASHINGTON

CITY           SKY/WX    TMP DP  RH WIND       PRES   REMARKS
GILLETTE       SUNNY     54  49  83 S15       30.13S
SHERIDAN       CLOUDY    53  44  71 SW5       30.11R
BUFFALO WY     SUNNY     55  41  59 NE3       30.14S
CODY           PTSUNNY   52  45  76 N5        30.17R
YELLOWSTONE LA   N/A     41  39  93 NW3       30.27R
IDAHO FALLS    CLOUDY    49  36  61 N6        30.08S
SALMON         SUNNY     48  30  49 CALM      30.11R
BOISE          MOCLDY    60  35  39 SE6       29.99R
SPOKANE        MOCLDY    62  42  47 NE6       30.03R
$$

REGIONAL REPORTS...ALBERTA

CITY           SKY/WX    TMP DP  RH WIND       PRES   REMARKS
EDMONTON       MOSUNNY   50  48  93 SW3       30.03F
CALGARY        PTSUNNY   50  43  76 SW5       30.11F
LETHBRIDGE     PTSUNNY   48  46  93 SW8       30.12F
MEDICINE HAT   CLOUDY    52  50  93 W8        30.08S
WATERTON GATE    N/A     45  43  93 S9          N/A
MILK RIVER       N/A     46  45  93 NW3         N/A
ONEFOUR          N/A     48  46  93 NW13        N/A
$$

REGIONAL REPORTS...SASKATCHEWAN

CITY           SKY/WX    TMP DP  RH WIND       PRES   REMARKS
SWIFT CURRENT  LGT RAIN  52  52 100 W13       30.00S
REGINA         PTSUNNY   55  54  94 W9        29.98F
SASKATOON      CLOUDY    55  55 100 NW9       29.96S
CYPRESS HILLS    N/A     46  45  93 NW7         N/A
VAL MARIE        N/A     54  48  82 W3          N/A
ROCKGLEN         N/A     52  48  87 W6          N/A
ASSINIBOIA       N/A     48  46  93 SW1         N/A
$$



USA.gov is the U.S. government's official web portal to all federal, state and local government web resources and services.